ACA861 CYQX-CYHZ

Flight info

Callsign ACA861
Flight time 1h 20m
Altitude 38000
Route YQX DCT SILRO DCT CAYLY DCT YHZ
Aircraft L101/H-SDFGHIRWXY/S

Departure

Time 2026-04-22 00:10
Airport Gander International Airport (CYQX)

Arrival

Time 2026-04-22 01:30
Airport Halifax / Stanfield International Airport (CYHZ)
Time Latitude Longitude Altitude Speed Heading
2026-04-21 22:23 48.94591 -54.57313 473 ft 0 kts 341°
2026-04-21 23:56 48.94571 -54.57303 473 ft 2 kts 340°
2026-04-21 23:56 48.94550 -54.57291 469 ft 3 kts 339°
2026-04-21 23:56 48.94529 -54.57279 467 ft 3 kts 341°
2026-04-21 23:56 48.94507 -54.57268 473 ft 3 kts 343°
2026-04-21 23:57 48.94495 -54.57263 473 ft 5 kts 343°
2026-04-22 00:01 48.94497 -54.57264 473 ft 1 kts 343°
2026-04-22 00:02 48.94506 -54.57261 473 ft 1 kts 17°
2026-04-22 00:02 48.94510 -54.57252 472 ft 1 kts 59°
2026-04-22 00:02 48.94513 -54.57226 467 ft 5 kts 76°
2026-04-22 00:02 48.94528 -54.57147 468 ft 10 kts 69°
2026-04-22 00:03 48.94548 -54.57038 470 ft 12 kts 95°
2026-04-22 00:03 48.94482 -54.56931 466 ft 17 kts 152°
2026-04-22 00:03 48.94363 -54.56840 464 ft 22 kts 154°
2026-04-22 00:03 48.94216 -54.56724 463 ft 26 kts 153°
2026-04-22 00:04 48.94070 -54.56614 464 ft 21 kts 156°
2026-04-22 00:04 48.93924 -54.56583 462 ft 21 kts 188°
2026-04-22 00:04 48.93773 -54.56626 460 ft 24 kts 191°
2026-04-22 00:04 48.93592 -54.56677 458 ft 29 kts 189°
2026-04-22 00:05 48.93384 -54.56738 455 ft 32 kts 188°
2026-04-22 00:05 48.93183 -54.56796 451 ft 26 kts 191°
2026-04-22 00:05 48.93023 -54.56842 450 ft 19 kts 191°
2026-04-22 00:05 48.92900 -54.56864 448 ft 19 kts 168°
2026-04-22 00:06 48.92780 -54.56769 447 ft 16 kts 144°
2026-04-22 00:06 48.92713 -54.56637 435 ft 14 kts 134°
2026-04-22 00:06 48.92607 -54.56629 434 ft 18 kts 191°
2026-04-22 00:06 48.92470 -54.56669 428 ft 22 kts 189°
2026-04-22 00:07 48.92302 -54.56714 432 ft 27 kts 190°
2026-04-22 00:07 48.92171 -54.56779 427 ft 15 kts 221°
2026-04-22 00:07 48.92115 -54.56821 437 ft 5 kts 144°
2026-04-22 00:07 48.92115 -54.56778 430 ft 3 kts 60°
2026-04-22 00:08 48.92132 -54.56765 427 ft 3 kts 18°
2026-04-22 00:08 48.92141 -54.56763 428 ft 0 kts 12°
2026-04-22 00:09 48.92215 -54.56740 434 ft 41 kts 10°
2026-04-22 00:09 48.92841 -54.56562 448 ft 137 kts 11°
2026-04-22 00:10 48.93926 -54.56243 1071 ft 167 kts
2026-04-22 00:10 48.95087 -54.55931 2406 ft 169 kts 10°
2026-04-22 00:10 48.96257 -54.55614 3667 ft 175 kts
2026-04-22 00:10 48.97477 -54.55284 4825 ft 183 kts
2026-04-22 00:11 48.98827 -54.54895 5489 ft 214 kts
2026-04-22 00:11 49.00410 -54.54429 5935 ft 250 kts 10°
2026-04-22 00:11 49.02275 -54.54318 6208 ft 290 kts 347°
2026-04-22 00:11 49.04195 -54.55444 7008 ft 300 kts 325°
2026-04-22 00:12 49.05786 -54.57464 8215 ft 296 kts 315°
2026-04-22 00:12 49.07296 -54.59579 9505 ft 294 kts 315°
2026-04-22 00:12 49.08835 -54.61697 10478 ft 303 kts 315°
2026-04-22 00:12 49.10388 -54.63895 11306 ft 309 kts 307°
2026-04-22 00:13 49.11557 -54.66709 11630 ft 323 kts 286°
2026-04-22 00:13 49.12081 -54.70067 11749 ft 338 kts 267°
2026-04-22 00:13 49.11901 -54.73732 11898 ft 350 kts 251°
2026-04-22 00:13 49.11057 -54.77222 12026 ft 361 kts 237°
2026-04-22 00:14 49.09726 -54.80492 12452 ft 364 kts 231°
2026-04-22 00:14 49.08342 -54.83711 13339 ft 362 kts 231°
2026-04-22 00:14 49.06939 -54.86954 13736 ft 372 kts 230°
2026-04-22 00:14 49.05508 -54.90241 14502 ft 369 kts 230°
2026-04-22 00:15 49.04090 -54.93497 15247 ft 370 kts 230°
2026-04-22 00:15 49.02663 -54.96761 15943 ft 371 kts 230°
2026-04-22 00:15 49.01225 -55.00043 16645 ft 372 kts 230°
2026-04-22 00:15 48.99782 -55.03326 17350 ft 374 kts 230°
2026-04-22 00:16 48.98330 -55.06619 18034 ft 375 kts 230°
2026-04-22 00:16 48.96870 -55.09918 18713 ft 377 kts 230°
2026-04-22 00:16 48.95398 -55.13233 19282 ft 379 kts 230°
2026-04-22 00:16 48.93919 -55.16551 19870 ft 380 kts 229°
2026-04-22 00:17 48.92421 -55.19900 20455 ft 383 kts 229°
2026-04-22 00:17 48.90918 -55.23248 21042 ft 385 kts 229°
2026-04-22 00:17 48.89402 -55.26616 21671 ft 387 kts 229°
2026-04-22 00:17 48.87874 -55.29997 22267 ft 389 kts 229°
2026-04-22 00:18 48.86360 -55.33336 22891 ft 391 kts 229°
2026-04-22 00:18 48.84809 -55.36744 23513 ft 394 kts 229°
2026-04-22 00:18 48.83241 -55.40179 24065 ft 397 kts 229°
2026-04-22 00:18 48.81663 -55.43624 24576 ft 400 kts 228°
2026-04-22 00:19 48.80067 -55.47097 25090 ft 402 kts 228°
2026-04-22 00:19 48.78457 -55.50589 25486 ft 407 kts 228°
2026-04-22 00:19 48.76804 -55.54147 25607 ft 418 kts 227°
2026-04-22 00:19 48.75104 -55.57774 25717 ft 428 kts 227°
2026-04-22 00:20 48.73366 -55.61459 26125 ft 430 kts 227°
2026-04-22 00:20 48.71638 -55.65126 26857 ft 425 kts 227°
2026-04-22 00:20 48.69930 -55.68752 27511 ft 422 kts 227°
2026-04-22 00:20 48.68231 -55.72361 28179 ft 419 kts 226°
2026-04-22 00:21 48.66548 -55.75938 28948 ft 416 kts 226°
2026-04-22 00:21 48.64875 -55.79499 29669 ft 413 kts 226°
2026-04-22 00:21 48.63220 -55.83025 30389 ft 410 kts 226°
2026-04-22 00:21 48.61583 -55.86518 31082 ft 405 kts 226°
2026-04-22 00:22 48.59968 -55.89970 31796 ft 399 kts 227°
2026-04-22 00:22 48.58380 -55.93376 32516 ft 394 kts 227°
2026-04-22 00:22 48.56814 -55.96745 33283 ft 389 kts 227°
2026-04-22 00:22 48.55271 -56.00073 34070 ft 384 kts 228°
2026-04-22 00:23 48.54262 -56.02253 34505 ft 382 kts 228°
2026-04-22 00:23 48.52735 -56.05554 34904 ft 385 kts 228°
2026-04-22 00:23 48.51195 -56.08880 35338 ft 387 kts 228°
2026-04-22 00:23 48.49649 -56.12220 35794 ft 389 kts 228°
2026-04-22 00:24 48.48092 -56.15575 36173 ft 392 kts 228°
2026-04-22 00:24 48.46525 -56.18948 36543 ft 395 kts 228°
2026-04-22 00:24 48.44947 -56.22339 36919 ft 397 kts 229°
2026-04-22 00:24 48.43355 -56.25756 37279 ft 400 kts 229°
2026-04-22 00:25 48.41753 -56.29194 37669 ft 403 kts 229°
2026-04-22 00:25 48.40148 -56.32638 37955 ft 397 kts 229°
2026-04-22 00:25 48.38553 -56.36070 38135 ft 407 kts 229°
2026-04-22 00:26 48.35061 -56.42975 38148 ft 417 kts 222°
2026-04-22 00:26 48.30905 -56.49073 38172 ft 417 kts 218°
2026-04-22 00:27 48.26553 -56.54758 38183 ft 417 kts 216°
2026-04-22 00:27 48.22108 -56.60350 38183 ft 417 kts 216°
2026-04-22 00:28 48.17658 -56.65934 38185 ft 419 kts 217°
2026-04-22 00:28 48.13449 -56.72040 38186 ft 423 kts 221°
2026-04-22 00:29 48.09612 -56.78774 38194 ft 427 kts 227°
2026-04-22 00:29 48.06080 -56.85949 38206 ft 429 kts 229°
2026-04-22 00:30 48.02643 -56.93274 38217 ft 431 kts 229°
2026-04-22 00:30 47.99236 -57.00666 38236 ft 432 kts 230°
2026-04-22 00:31 47.95846 -57.08081 38229 ft 433 kts 230°
2026-04-22 00:31 47.92458 -57.15496 38235 ft 433 kts 230°
2026-04-22 00:32 47.89065 -57.22919 38273 ft 433 kts 230°
2026-04-22 00:32 47.85677 -57.30327 38242 ft 433 kts 230°
2026-04-22 00:33 47.82285 -57.37742 38237 ft 433 kts 230°
2026-04-22 00:33 47.78894 -57.45156 38238 ft 433 kts 230°
2026-04-22 00:34 47.75503 -57.52567 38244 ft 433 kts 230°
2026-04-22 00:34 47.72109 -57.59969 38246 ft 433 kts 230°
2026-04-22 00:35 47.68713 -57.67334 38244 ft 432 kts 230°
2026-04-22 00:35 47.65318 -57.74686 38252 ft 432 kts 230°
2026-04-22 00:36 47.61913 -57.81998 38243 ft 431 kts 229°
2026-04-22 00:36 47.58407 -57.89196 38253 ft 430 kts 228°
2026-04-22 00:37 47.54861 -57.96325 38258 ft 429 kts 228°
2026-04-22 00:37 47.51309 -58.03413 38255 ft 429 kts 228°
2026-04-22 00:38 47.47751 -58.10495 38260 ft 429 kts 228°
2026-04-22 00:38 47.44191 -58.17572 38287 ft 429 kts 228°
2026-04-22 00:39 47.40659 -58.24597 38271 ft 428 kts 228°
2026-04-22 00:39 47.37113 -58.31655 38262 ft 428 kts 228°
2026-04-22 00:40 47.33568 -58.38712 38269 ft 428 kts 228°
2026-04-22 00:40 47.30025 -58.45761 38262 ft 428 kts 228°
2026-04-22 00:41 47.26484 -58.52801 38277 ft 428 kts 228°
2026-04-22 00:41 47.22890 -58.59778 38276 ft 426 kts 225°
2026-04-22 00:42 47.19067 -58.66429 38275 ft 425 kts 224°
2026-04-22 00:42 47.15150 -58.72925 38282 ft 425 kts 223°
2026-04-22 00:43 47.11198 -58.79381 38290 ft 425 kts 223°
2026-04-22 00:43 47.07236 -58.85834 38287 ft 426 kts 223°
2026-04-22 00:44 47.03272 -58.92287 38288 ft 426 kts 223°
2026-04-22 00:44 46.99311 -58.98743 38288 ft 426 kts 223°
2026-04-22 00:45 46.95346 -59.05202 38298 ft 427 kts 223°
2026-04-22 00:45 46.91376 -59.11679 38292 ft 428 kts 223°
2026-04-22 00:46 46.87407 -59.18170 38315 ft 429 kts 223°
2026-04-22 00:46 46.83424 -59.24695 38307 ft 431 kts 223°
2026-04-22 00:47 46.79442 -59.31231 38295 ft 431 kts 223°
2026-04-22 00:47 46.75312 -59.37531 38295 ft 428 kts 219°
2026-04-22 00:48 46.70935 -59.43380 38295 ft 427 kts 217°
2026-04-22 00:48 46.66468 -59.49063 38294 ft 426 kts 216°
2026-04-22 00:49 46.61964 -59.54696 38303 ft 427 kts 216°
2026-04-22 00:49 46.57475 -59.60274 38298 ft 428 kts 216°
2026-04-22 00:50 46.52917 -59.65931 38302 ft 428 kts 216°
2026-04-22 00:50 46.48420 -59.71510 38306 ft 428 kts 216°
2026-04-22 00:51 46.43890 -59.77121 38306 ft 429 kts 216°
2026-04-22 00:51 46.39353 -59.82734 38300 ft 429 kts 216°
2026-04-22 00:52 46.34810 -59.88354 38306 ft 430 kts 216°
2026-04-22 00:52 46.30268 -59.93969 38321 ft 430 kts 216°
2026-04-22 00:53 46.25707 -59.99600 38310 ft 432 kts 216°
2026-04-22 00:53 46.21132 -60.05245 38301 ft 433 kts 216°
2026-04-22 00:54 46.16556 -60.10890 38300 ft 433 kts 216°
2026-04-22 00:54 46.12028 -60.16631 38269 ft 438 kts 224°
2026-04-22 00:55 46.08537 -60.23898 38317 ft 446 kts 234°
2026-04-22 00:55 46.04093 -60.35778 38300 ft 450 kts 237°
2026-04-22 00:56 46.01225 -60.43774 38302 ft 450 kts 237°
2026-04-22 00:56 45.98379 -60.51736 38305 ft 451 kts 237°
2026-04-22 00:57 45.95511 -60.59760 38298 ft 451 kts 237°
2026-04-22 00:57 45.92642 -60.67772 38300 ft 451 kts 237°
2026-04-22 00:58 45.89768 -60.75784 38298 ft 451 kts 237°
2026-04-22 00:58 45.86893 -60.83786 38305 ft 451 kts 237°
2026-04-22 00:59 45.84011 -60.91786 38303 ft 451 kts 237°
2026-04-22 00:59 45.81130 -60.99767 38304 ft 451 kts 237°
2026-04-22 01:00 45.78243 -61.07760 38309 ft 451 kts 237°
2026-04-22 01:00 45.75357 -61.15732 38311 ft 451 kts 237°
2026-04-22 01:01 45.72468 -61.23695 38315 ft 451 kts 237°
2026-04-22 01:01 45.69574 -61.31664 38317 ft 451 kts 237°
2026-04-22 01:02 45.66682 -61.39620 38310 ft 451 kts 237°
2026-04-22 01:02 45.63786 -61.47574 38308 ft 451 kts 237°
2026-04-22 01:03 45.60887 -61.55536 38322 ft 453 kts 238°
2026-04-22 01:03 45.57981 -61.63542 38304 ft 455 kts 238°
2026-04-22 01:04 45.55069 -61.71559 38323 ft 455 kts 238°
2026-04-22 01:04 45.52149 -61.79574 38331 ft 455 kts 238°
2026-04-22 01:05 45.49227 -61.87568 38301 ft 456 kts 238°
2026-04-22 01:05 45.47750 -61.91600 37610 ft 459 kts 238°
2026-04-22 01:05 45.46303 -61.95555 36713 ft 453 kts 237°
2026-04-22 01:06 45.44860 -61.99500 35835 ft 446 kts 237°
2026-04-22 01:06 45.43436 -62.03385 35011 ft 439 kts 237°
2026-04-22 01:06 45.42024 -62.07225 34150 ft 436 kts 236°
2026-04-22 01:06 45.40611 -62.11047 33201 ft 437 kts 236°
2026-04-22 01:07 45.39189 -62.14872 32288 ft 437 kts 235°
2026-04-22 01:07 45.37768 -62.18676 31386 ft 435 kts 235°
2026-04-22 01:07 45.36351 -62.22449 30526 ft 432 kts 234°
2026-04-22 01:07 45.34934 -62.26209 29546 ft 430 kts 234°
2026-04-22 01:08 45.33519 -62.29976 28558 ft 433 kts 234°
2026-04-22 01:08 45.32103 -62.33766 27583 ft 436 kts 234°
2026-04-22 01:08 45.30685 -62.37572 26653 ft 437 kts 233°
2026-04-22 01:08 45.29262 -62.41397 25754 ft 438 kts 233°
2026-04-22 01:09 45.27839 -62.45223 24864 ft 435 kts 233°
2026-04-22 01:09 45.26474 -62.48930 24017 ft 414 kts 232°
2026-04-22 01:09 45.25169 -62.52474 23011 ft 395 kts 232°
2026-04-22 01:09 45.23914 -62.55859 22037 ft 381 kts 234°
2026-04-22 01:10 45.22700 -62.59132 21087 ft 369 kts 236°
2026-04-22 01:10 45.21918 -62.61244 20468 ft 362 kts 237°
2026-04-22 01:10 45.20762 -62.64368 19574 ft 354 kts 238°
2026-04-22 01:10 45.19629 -62.67431 18687 ft 347 kts 239°
2026-04-22 01:11 45.18522 -62.70428 17698 ft 340 kts 240°
2026-04-22 01:11 45.17434 -62.73380 16728 ft 335 kts 240°
2026-04-22 01:11 45.16363 -62.76294 15770 ft 331 kts 241°
2026-04-22 01:11 45.15307 -62.79173 14871 ft 328 kts 242°
2026-04-22 01:12 45.14257 -62.82031 13962 ft 325 kts 242°
2026-04-22 01:12 45.13217 -62.84858 13052 ft 321 kts 242°
2026-04-22 01:12 45.12196 -62.87619 12340 ft 312 kts 242°
2026-04-22 01:12 45.11202 -62.90298 11628 ft 305 kts 243°
2026-04-22 01:13 45.10223 -62.92929 10935 ft 299 kts 243°
2026-04-22 01:13 45.09258 -62.95523 10249 ft 295 kts 244°
2026-04-22 01:13 45.08304 -62.98080 9490 ft 292 kts 244°
2026-04-22 01:13 45.07362 -63.00597 8753 ft 288 kts 244°
2026-04-22 01:14 45.06426 -63.03083 8083 ft 284 kts 244°
2026-04-22 01:14 45.05507 -63.05513 7523 ft 277 kts 244°
2026-04-22 01:14 45.04610 -63.07880 6981 ft 270 kts 244°
2026-04-22 01:14 45.03730 -63.10194 6448 ft 264 kts 244°
2026-04-22 01:15 45.02885 -63.12419 6136 ft 252 kts 244°
2026-04-22 01:15 45.01910 -63.14499 5878 ft 261 kts 229°
2026-04-22 01:15 45.00528 -63.16171 5660 ft 263 kts 218°
2026-04-22 01:15 44.99016 -63.17631 5411 ft 263 kts 215°
2026-04-22 01:16 44.97552 -63.18942 5206 ft 261 kts 214°
2026-04-22 01:16 44.96016 -63.20286 5057 ft 259 kts 213°
2026-04-22 01:16 44.94490 -63.21621 5019 ft 259 kts 213°
2026-04-22 01:16 44.92955 -63.22963 5016 ft 259 kts 214°
2026-04-22 01:17 44.91420 -63.24298 5008 ft 259 kts 213°
2026-04-22 01:17 44.89890 -63.25630 5006 ft 259 kts 213°
2026-04-22 01:17 44.88358 -63.26971 5004 ft 259 kts 213°
2026-04-22 01:17 44.86822 -63.28310 5004 ft 259 kts 213°
2026-04-22 01:18 44.85289 -63.29645 4999 ft 259 kts 213°
2026-04-22 01:18 44.83752 -63.30989 5008 ft 259 kts 214°
2026-04-22 01:18 44.82216 -63.32331 5006 ft 260 kts 214°
2026-04-22 01:18 44.80681 -63.33664 5008 ft 260 kts 214°
2026-04-22 01:19 44.79148 -63.35004 5001 ft 259 kts 213°
2026-04-22 01:19 44.77618 -63.36358 5003 ft 259 kts 213°
2026-04-22 01:19 44.76090 -63.37712 5009 ft 259 kts 214°
2026-04-22 01:19 44.74563 -63.39066 5001 ft 259 kts 213°
2026-04-22 01:20 44.73043 -63.40419 4995 ft 254 kts 214°
2026-04-22 01:20 44.71614 -63.41685 4958 ft 233 kts 214°
2026-04-22 01:20 44.70283 -63.42853 4812 ft 220 kts 213°
2026-04-22 01:20 44.69012 -63.43972 4680 ft 216 kts 213°
2026-04-22 01:21 44.67730 -63.45112 4571 ft 219 kts 214°
2026-04-22 01:21 44.66446 -63.46260 4427 ft 219 kts 214°
2026-04-22 01:21 44.65154 -63.47418 4292 ft 220 kts 213°
2026-04-22 01:21 44.63867 -63.48580 4145 ft 221 kts 213°
2026-04-22 01:22 44.62589 -63.49749 4022 ft 218 kts 214°
2026-04-22 01:22 44.61326 -63.50951 3996 ft 219 kts 222°
2026-04-22 01:22 44.60498 -63.52703 3911 ft 216 kts 257°
2026-04-22 01:22 44.60535 -63.54750 3945 ft 212 kts 289°
2026-04-22 01:23 44.61142 -63.56644 4026 ft 215 kts 300°
2026-04-22 01:23 44.61900 -63.58453 4018 ft 215 kts 303°
2026-04-22 01:23 44.62697 -63.60233 3989 ft 215 kts 303°
2026-04-22 01:23 44.63490 -63.61971 3985 ft 215 kts 304°
2026-04-22 01:24 44.64309 -63.63753 3982 ft 214 kts 305°
2026-04-22 01:24 44.65382 -63.65140 3910 ft 211 kts 337°
2026-04-22 01:24 44.66781 -63.65529 3978 ft 209 kts 357°
2026-04-22 01:24 44.68272 -63.65520 4010 ft 213 kts
2026-04-22 01:25 44.69703 -63.65417 4050 ft 201 kts
2026-04-22 01:25 44.71037 -63.65297 3914 ft 183 kts
2026-04-22 01:25 44.72250 -63.65187 3902 ft 172 kts
2026-04-22 01:25 44.73460 -63.65069 4002 ft 177 kts
2026-04-22 01:26 44.74599 -63.64457 4149 ft 176 kts 29°
2026-04-22 01:26 44.75588 -63.63519 4075 ft 166 kts 34°
2026-04-22 01:26 44.76507 -63.62598 3908 ft 157 kts 35°
2026-04-22 01:26 44.77397 -63.61723 3565 ft 155 kts 34°
2026-04-22 01:27 44.78251 -63.60893 3127 ft 144 kts 36°
2026-04-22 01:27 44.79054 -63.60108 2654 ft 137 kts 37°
2026-04-22 01:27 44.79803 -63.59375 2268 ft 125 kts 37°
2026-04-22 01:27 44.80536 -63.58655 2056 ft 134 kts 37°
2026-04-22 01:28 44.81340 -63.57868 1965 ft 147 kts 36°
2026-04-22 01:28 44.82155 -63.57103 1615 ft 132 kts 35°
2026-04-22 01:28 44.82905 -63.56376 1406 ft 130 kts 37°
2026-04-22 01:28 44.83646 -63.55627 1192 ft 132 kts 37°
2026-04-22 01:29 44.84397 -63.54876 1032 ft 132 kts 37°
2026-04-22 01:29 44.85144 -63.54136 850 ft 130 kts 36°
2026-04-22 01:29 44.85878 -63.53418 661 ft 128 kts 36°
2026-04-22 01:29 44.86598 -63.52704 508 ft 126 kts 37°
2026-04-22 01:30 44.87275 -63.52026 453 ft 106 kts 36°
2026-04-22 01:30 44.87779 -63.51526 457 ft 75 kts 34°
2026-04-22 01:30 44.88151 -63.51158 454 ft 54 kts 35°
2026-04-22 01:30 44.88306 -63.51021 454 ft 13 kts
2026-04-22 01:31 44.88366 -63.51104 455 ft 14 kts 302°
2026-04-22 01:31 44.88405 -63.51172 456 ft 8 kts 324°
2026-04-22 01:31 44.88470 -63.51204 456 ft 11 kts 348°
2026-04-22 01:31 44.88529 -63.51222 457 ft 8 kts 342°
2026-04-22 01:32 44.88575 -63.51286 455 ft 11 kts 304°
2026-04-22 01:32 44.88600 -63.51339 457 ft 2 kts 303°
2026-04-22 01:32 44.88607 -63.51354 457 ft 0 kts 303°